Weather Roundup
Issued by NWS Chicago, IL

Home | Current Version | Previous Version | Graphics & Text | Print | Product List | Glossary On
Versions: 1 2 3 4 5 6 7 8 9 10 11 12 13 14 15 16 17 18 19 20 21 22 23 24 25 26 27 28 29 30 31 32 33 34 35 36 37 38 39 40 41 42 43 44 45 46 47 48 49 50
252
NZUS59 KLOT 301708
HRRLOT

CHICAGO AREA WEATHER ROUNDUP
NATIONAL WEATHER SERVICE CHICAGO/ROMEOVILLE IL
1200 PM CDT SAT APR 30 2016

NOTE: "FAIR" INDICATES FEW OR NO CLOUDS BELOW 12,000 FEET WITH NO
SIGNIFICANT WEATHER AND/OR OBSTRUCTIONS TO VISIBILITY.

* THESE STATIONS ARE NOT UNDER NWS QUALITY CONTROL. THEY ALSO MAY NOT
  REPORT WEATHER SUCH AS PRECIPITATION OR FOG.

ILZ005-006-012>014-019>023-301800-
NORTHEAST ILLINOIS

CITY           SKY/WX    TMP DP  RH WIND       PRES   REMARKS
OHARE          LGT RAIN  45  40  82 E15G23    30.00F
MIDWAY         LGT RAIN  47  41  80 E18G25    30.00F
AURORA         LGT RAIN  48  44  86 E18G26    29.94F FOG
LANSING*       RAIN      46  43  90 E9        29.99F
JOLIET*        LGT RAIN  49  47  92 E17G23    29.94F
WAUKEGAN       LGT RAIN  44  41  89 E13G21    30.03F
DUPAGE AIRPORT LGT RAIN  46  41  82 E20       29.96F
WHEELING       LGT RAIN  45  41  86 E9        30.03F FOG
KANKAKEE*      LGT RAIN  48  46  95 E20       29.93F
MORRIS*        LGT RAIN  48  46  90 E20       29.91F
LEWIS AIRPORT* LGT RAIN  47  44  89 E21       29.96F
$$

WIZ051-052-058>065-066-070>072-301800-
SOUTHEAST WISCONSIN

CITY           SKY/WX    TMP DP  RH WIND       PRES   REMARKS
MILWAUKEE      CLOUDY    45  38  76 E15       30.07F
KENOSHA*       LGT RAIN  46  41  82 E15       30.05F
RACINE*        LGT RAIN  45  38  76 E15       30.07F
BURLINGTON     DRIZZLE   46  39  76 E13G18    30.03F
WAUKESHA       CLOUDY    45  36  70 E12       30.08F
WEST BEND      PTSUNNY   50  36  57 E10G18    30.09F
$$

INZ001>003-010>013-019-020-301800-
NORTHWEST INDIANA

CITY           SKY/WX    TMP DP  RH WIND       PRES   REMARKS
GARY*          LGT RAIN  48  48 100 E14       30.02F
MICHIGAN CITY* NOT AVBL
RENSSELAER*    NOT AVBL
VALPARAISO     LGT RAIN  46  43  89 E17       30.01F
$$

LMZ740>746-301800-
SOUTHERN LAKE MICHIGAN

STATION/POSITION TIME  SKY/WX   TEMP WIND        PRES    VSBY
                                AIR  DIR/SP/G
                 (UTC)          (F)  (DEG/KT/KT) (MB)    (MI)
HARRISON CRIB    1600            45   90/ 14/ 15   N/A
BURNHAM HARBOR   1700            45   80/ 15       N/A
CALUMET HARBOR   1600            46   80/ 12/ 18 1016.5F
BURNS HARBOR     1605            46  100/  9/ 17 1017.6S
MICHIGAN CITY    1600            45   70/ 10/ 13   N/A
$$

ABBREVIATIONS USED IN REMARKS
   TC - TEMPERATURE IN CELSIUS
  WCI - WIND CHILL INDEX
   HX - HEAT INDEX
  VSB - VISIBILITY
$$




USA.gov is the U.S. government's official web portal to all federal, state and local government web resources and services.